Time,TemperatureF,DewpointF,PressureIn,WindDirection,WindDirectionDegrees,WindSpeedMPH,WindSpeedGustMPH,Humidity,HourlyPrecipIn,Conditions,Clouds,dailyrainin,SoftwareType,DateUTC
2013-04-10 00:00:00,34.4,24.6,30.12,ENE,62,5.0,11.0,67,0.00,,SKC,0.00,VWS V14.01,2013-04-10 05:00:00,
2013-04-10 00:05:00,34.4,25.3,30.12,ENE,62,5.0,11.0,69,0.00,,SKC,0.00,VWS V14.01,2013-04-10 05:05:00,
2013-04-10 00:10:00,34.4,25.0,30.12,ENE,62,5.0,7.0,68,0.00,,SKC,0.00,VWS V14.01,2013-04-10 05:10:00,
2013-04-10 00:15:00,34.4,25.0,30.11,ENE,62,5.0,7.0,68,0.00,,SKC,0.00,VWS V14.01,2013-04-10 05:15:00,
2013-04-10 00:20:00,34.3,24.9,30.11,ENE,57,7.0,8.0,68,0.00,,SKC,0.00,VWS V14.01,2013-04-10 05:20:00,
2013-04-10 00:25:00,34.4,24.6,30.12,NE,51,6.0,8.0,67,0.00,,SKC,0.00,VWS V14.01,2013-04-10 05:25:00,
2013-04-10 00:30:00,34.3,24.5,30.13,NE,51,3.0,8.0,67,0.00,,SKC,0.00,VWS V14.01,2013-04-10 05:30:00,
2013-04-10 00:35:00,34.2,24.8,30.13,NE,51,2.0,8.0,68,0.00,,SKC,0.00,VWS V14.01,2013-04-10 05:35:00,
2013-04-10 00:40:00,34.1,24.7,30.12,NE,51,4.0,8.0,68,0.00,,SKC,0.00,VWS V14.01,2013-04-10 05:40:00,
2013-04-10 00:46:00,34.1,25.0,30.12,NE,51,3.0,8.0,69,0.00,,SKC,0.00,VWS V14.01,2013-04-10 05:46:00,
2013-04-10 00:51:00,34.0,24.2,30.12,NE,51,6.0,9.0,67,0.00,,SKC,0.00,VWS V14.01,2013-04-10 05:51:00,
2013-04-10 00:56:00,34.0,23.9,30.12,NE,46,7.0,11.0,66,0.00,,SKC,0.00,VWS V14.01,2013-04-10 05:56:00,
2013-04-10 01:00:00,34.0,24.2,30.12,NE,43,5.0,11.0,67,0.00,,SKC,0.00,VWS V14.01,2013-04-10 06:00:00,
2013-04-10 01:01:00,34.0,23.9,30.12,NE,43,8.0,11.0,66,0.00,,SKC,0.00,VWS V14.01,2013-04-10 06:01:00,
2013-04-10 01:07:00,34.0,24.2,30.11,NE,43,6.0,7.0,67,0.00,,SKC,0.00,VWS V14.01,2013-04-10 06:07:00,
2013-04-10 01:12:00,33.8,24.0,30.12,NE,42,5.0,7.0,67,0.00,,SKC,0.00,VWS V14.01,2013-04-10 06:12:00,
2013-04-10 01:17:00,33.8,24.0,30.12,NE,42,5.0,10.0,67,0.00,,SKC,0.00,VWS V14.01,2013-04-10 06:17:00,
2013-04-10 01:22:00,33.8,23.7,30.12,NE,42,6.0,10.0,66,0.00,,SKC,0.00,VWS V14.01,2013-04-10 06:22:00,
2013-04-10 01:27:00,33.8,23.7,30.13,NE,42,2.0,10.0,66,0.00,,SKC,0.00,VWS V14.01,2013-04-10 06:27:00,
2013-04-10 01:30:00,33.8,25.1,30.13,NE,42,4.0,10.0,70,0.00,,SKC,0.00,VWS V14.01,2013-04-10 06:30:00,
2013-04-10 01:33:00,33.7,23.9,30.12,NE,42,5.0,10.0,67,0.00,,SKC,0.00,VWS V14.01,2013-04-10 06:33:00,
2013-04-10 01:38:00,33.8,24.7,30.13,NE,42,4.0,5.0,69,0.00,,SKC,0.00,VWS V14.01,2013-04-10 06:38:00,
2013-04-10 01:43:00,33.9,24.5,30.13,NE,42,2.0,5.0,68,0.00,,SKC,0.00,VWS V14.01,2013-04-10 06:43:00,
2013-04-10 01:48:00,33.8,24.4,30.12,NE,42,4.0,6.0,68,0.00,,SKC,0.00,VWS V14.01,2013-04-10 06:48:00,
2013-04-10 01:53:00,33.7,24.3,30.12,NE,44,5.0,10.0,68,0.00,,SKC,0.00,VWS V14.01,2013-04-10 06:53:00,
2013-04-10 01:58:00,33.7,24.3,30.12,NE,44,5.0,10.0,68,0.00,,SKC,0.00,VWS V14.01,2013-04-10 06:58:00,
2013-04-10 02:00:00,33.6,23.8,30.13,NE,42,5.0,10.0,67,0.00,,SKC,0.00,VWS V14.01,2013-04-10 07:00:00,
2013-04-10 02:03:00,33.6,23.8,30.13,NE,42,6.0,10.0,67,0.00,,SKC,0.00,VWS V14.01,2013-04-10 07:03:00,
2013-04-10 02:08:00,33.6,24.2,30.12,NE,42,4.0,8.0,68,0.00,,SKC,0.00,VWS V14.01,2013-04-10 07:08:00,
2013-04-10 02:14:00,33.5,25.1,30.12,NE,42,5.0,8.0,71,0.00,,SKC,0.00,VWS V14.01,2013-04-10 07:14:00,
2013-04-10 02:19:00,33.4,25.4,30.10,NE,42,5.0,8.0,72,0.00,,SKC,0.00,VWS V14.01,2013-04-10 07:19:00,
2013-04-10 02:24:00,33.2,26.1,30.09,NE,42,5.0,8.0,75,0.00,,SKC,0.00,VWS V14.01,2013-04-10 07:24:00,
2013-04-10 02:29:00,33.0,26.6,30.08,NE,39,12.0,12.0,77,0.00,,SKC,0.00,VWS V14.01,2013-04-10 07:29:00,
2013-04-10 02:30:00,32.8,26.7,30.06,NE,38,9.0,12.0,78,0.00,,SKC,0.00,VWS V14.01,2013-04-10 07:30:00,
2013-04-10 02:34:00,32.8,26.7,30.06,NE,38,8.0,12.0,78,0.00,,SKC,0.00,VWS V14.01,2013-04-10 07:34:00,
2013-04-10 02:39:00,32.6,26.5,30.05,NE,38,9.0,11.0,78,0.00,,SKC,0.00,VWS V14.01,2013-04-10 07:39:00,
2013-04-10 02:45:00,32.5,26.1,30.05,NE,42,11.0,12.0,77,0.00,,SKC,0.00,VWS V14.01,2013-04-10 07:45:00,
2013-04-10 02:50:00,32.4,26.3,30.03,NE,41,9.0,12.0,78,0.00,,SKC,0.00,VWS V14.01,2013-04-10 07:50:00,
2013-04-10 02:55:00,32.3,26.2,30.01,NE,40,9.0,14.0,78,0.00,,SKC,0.00,VWS V14.01,2013-04-10 07:55:00,
2013-04-10 03:00:00,32.1,26.0,30.01,NE,41,8.0,16.0,78,0.00,,SKC,0.00,VWS V14.01,2013-04-10 08:00:00,
2013-04-10 03:05:00,32.0,26.2,30.01,NE,46,12.0,16.0,79,0.00,,SKC,0.00,VWS V14.01,2013-04-10 08:05:00,
2013-04-10 03:10:00,31.9,26.1,30.00,NE,35,12.0,16.0,79,0.00,,SKC,0.00,VWS V14.01,2013-04-10 08:10:00,
2013-04-10 03:16:00,31.9,26.1,30.01,NE,50,6.0,16.0,79,0.00,,SKC,0.00,VWS V14.01,2013-04-10 08:16:00,
2013-04-10 03:21:00,31.8,26.0,30.02,NE,42,7.0,16.0,79,0.00,,SKC,0.00,VWS V14.01,2013-04-10 08:21:00,
2013-04-10 03:26:00,31.8,25.7,30.00,NE,38,8.0,16.0,78,0.00,,SKC,0.00,VWS V14.01,2013-04-10 08:26:00,
2013-04-10 03:30:00,31.7,25.6,30.03,NE,36,8.0,16.0,78,0.00,,SKC,0.00,VWS V14.01,2013-04-10 08:30:00,
2013-04-10 03:31:00,31.7,25.6,30.02,NNE,28,5.0,16.0,78,0.00,,SKC,0.00,VWS V14.01,2013-04-10 08:31:00,
2013-04-10 03:36:00,31.6,25.5,30.03,NNE,29,5.0,8.0,78,0.00,,SKC,0.00,VWS V14.01,2013-04-10 08:36:00,
2013-04-10 03:41:00,31.6,25.5,30.03,NNE,23,4.0,8.0,78,0.00,,SKC,0.00,VWS V14.01,2013-04-10 08:41:00,
2013-04-10 03:46:00,31.6,25.9,30.05,NNW,341,7.0,8.0,79,0.00,,SKC,0.00,VWS V14.01,2013-04-10 08:46:00,
2013-04-10 03:51:00,31.6,25.2,30.04,North,349,6.0,10.0,77,0.00,,SKC,0.00,VWS V14.01,2013-04-10 08:51:00,
2013-04-10 03:56:00,31.5,25.1,30.05,NNW,327,7.0,10.0,77,0.00,,SKC,0.00,VWS V14.01,2013-04-10 08:56:00,
2013-04-10 04:00:00,31.6,25.2,30.08,North,355,4.0,12.0,77,0.00,,SKC,0.00,VWS V14.01,2013-04-10 09:00:00,
2013-04-10 04:01:00,31.5,25.1,30.06,NNW,342,5.0,12.0,77,0.00,,SKC,0.00,VWS V14.01,2013-04-10 09:01:00,
2013-04-10 04:06:00,31.5,25.1,30.09,North,355,1.0,4.0,77,0.00,,SKC,0.00,VWS V14.01,2013-04-10 09:06:00,
2013-04-10 04:12:00,31.5,25.1,30.09,North,350,7.0,11.0,77,0.00,,SKC,0.00,VWS V14.01,2013-04-10 09:12:00,
2013-04-10 04:17:00,31.5,24.8,30.08,NNW,344,6.0,11.0,76,0.00,,SKC,0.00,VWS V14.01,2013-04-10 09:17:00,
2013-04-10 04:22:00,31.6,25.2,30.08,North,355,4.0,11.0,77,0.00,,SKC,0.00,VWS V14.01,2013-04-10 09:22:00,
2013-04-10 04:27:00,31.6,24.9,30.08,North,355,6.0,11.0,76,0.00,,SKC,0.00,VWS V14.01,2013-04-10 09:27:00,
2013-04-10 04:30:00,31.5,24.8,30.06,North,360,5.0,11.0,76,0.00,,SKC,0.00,VWS V14.01,2013-04-10 09:30:00,
2013-04-10 04:32:00,31.6,24.9,30.07,NNW,343,5.0,11.0,76,0.00,,SKC,0.00,VWS V14.01,2013-04-10 09:32:00,
2013-04-10 04:37:00,31.5,24.8,30.05,NNE,15,8.0,8.0,76,0.00,,SKC,0.00,VWS V14.01,2013-04-10 09:37:00,
2013-04-10 04:43:00,31.5,25.1,30.05,NNE,26,8.0,9.0,77,0.00,,SKC,0.00,VWS V14.01,2013-04-10 09:43:00,
2013-04-10 04:48:00,31.4,25.0,30.06,NNE,22,6.0,11.0,77,0.00,,SKC,0.00,VWS V14.01,2013-04-10 09:48:00,
2013-04-10 04:53:00,31.4,25.0,30.05,NE,36,7.0,11.0,77,0.00,,SKC,0.00,VWS V14.01,2013-04-10 09:53:00,
2013-04-10 04:58:00,31.3,25.2,30.04,NE,40,13.0,14.0,78,0.00,,SKC,0.00,VWS V14.01,2013-04-10 09:58:00,
2013-04-10 05:00:00,31.2,24.5,30.06,NE,43,6.0,15.0,76,0.00,,SKC,0.00,VWS V14.01,2013-04-10 10:00:00,
2013-04-10 05:03:00,31.2,24.5,30.05,NE,41,8.0,15.0,76,0.00,,SKC,0.00,VWS V14.01,2013-04-10 10:03:00,
2013-04-10 05:08:00,31.2,24.5,30.07,NE,43,6.0,10.0,76,0.00,,SKC,0.00,VWS V14.01,2013-04-10 10:08:00,
2013-04-10 05:13:00,31.2,24.5,30.07,NE,43,7.0,13.0,76,0.00,,SKC,0.00,VWS V14.01,2013-04-10 10:13:00,
2013-04-10 05:18:00,31.3,24.6,30.08,NE,44,6.0,13.0,76,0.00,,SKC,0.00,VWS V14.01,2013-04-10 10:18:00,
2013-04-10 05:23:00,31.3,24.6,30.09,NE,43,4.0,13.0,76,0.00,,SKC,0.00,VWS V14.01,2013-04-10 10:23:00,
2013-04-10 05:28:00,31.3,24.6,30.09,NE,43,4.0,13.0,76,0.00,,SKC,0.00,VWS V14.01,2013-04-10 10:28:00,
2013-04-10 05:30:00,31.4,24.7,30.10,NE,35,5.0,13.0,76,0.00,,SKC,0.00,VWS V14.01,2013-04-10 10:30:00,
2013-04-10 05:33:00,31.3,24.9,30.09,NE,41,7.0,13.0,77,0.00,,SKC,0.00,VWS V14.01,2013-04-10 10:33:00,
2013-04-10 05:38:00,31.4,24.7,30.10,NE,35,4.0,6.0,76,0.00,,SKC,0.00,VWS V14.01,2013-04-10 10:38:00,
2013-04-10 05:43:00,31.4,24.7,30.09,NE,35,5.0,6.0,76,0.00,,SKC,0.00,VWS V14.01,2013-04-10 10:43:00,
2013-04-10 05:48:00,31.3,24.6,30.09,NE,35,6.0,7.0,76,0.00,,SKC,0.00,VWS V14.01,2013-04-10 10:48:00,
2013-04-10 05:53:00,31.4,24.7,30.08,NE,36,5.0,8.0,76,0.00,,SKC,0.00,VWS V14.01,2013-04-10 10:53:00,
2013-04-10 05:58:00,31.3,24.6,30.07,NE,36,8.0,9.0,76,0.00,,SKC,0.00,VWS V14.01,2013-04-10 10:58:00,
2013-04-10 06:00:00,31.1,24.4,30.05,NE,38,10.0,11.0,76,0.00,,SKC,0.00,VWS V14.01,2013-04-10 11:00:00,
2013-04-10 06:03:00,31.1,24.4,30.05,NE,38,9.0,10.0,76,0.00,,SKC,0.00,VWS V14.01,2013-04-10 11:03:00,
2013-04-10 06:09:00,31.0,24.6,30.04,NE,36,9.0,12.0,77,0.00,,SKC,0.00,VWS V14.01,2013-04-10 11:09:00,
2013-04-10 06:14:00,30.9,24.2,30.03,NE,47,11.0,14.0,76,0.00,,SKC,0.00,VWS V14.01,2013-04-10 11:14:00,
2013-04-10 06:19:00,30.8,24.1,30.02,NE,49,10.0,14.0,76,0.00,,SKC,0.00,VWS V14.01,2013-04-10 11:19:00,
2013-04-10 06:24:00,30.7,24.0,30.02,NE,47,11.0,14.0,76,0.00,,SKC,0.00,VWS V14.01,2013-04-10 11:24:00,
2013-04-10 06:29:00,30.7,24.4,30.01,NE,48,11.0,18.0,77,0.00,,SKC,0.00,VWS V14.01,2013-04-10 11:29:00,
2013-04-10 06:30:00,30.6,24.0,30.01,NE,46,8.0,18.0,76,0.00,,SKC,0.00,VWS V14.01,2013-04-10 11:30:00,
2013-04-10 06:34:00,30.6,24.0,30.01,NE,39,10.0,18.0,76,0.00,,SKC,0.00,VWS V14.01,2013-04-10 11:34:00,
2013-04-10 06:40:00,30.6,24.0,30.01,NE,38,14.0,15.0,76,0.00,,SKC,0.00,VWS V14.01,2013-04-10 11:40:00,
2013-04-10 06:45:00,30.6,24.0,30.00,NE,49,13.0,18.0,76,0.00,,SKC,0.00,VWS V14.01,2013-04-10 11:45:00,
2013-04-10 06:50:00,30.6,24.0,30.02,NE,44,8.0,22.0,76,0.00,,SKC,0.00,VWS V14.01,2013-04-10 11:50:00,
2013-04-10 06:55:00,30.6,24.0,30.03,NE,38,9.0,22.0,76,0.00,,SKC,0.00,VWS V14.01,2013-04-10 11:55:00,
2013-04-10 07:00:00,30.7,24.4,30.02,NE,43,8.0,22.0,77,0.00,,SKC,0.00,VWS V14.01,2013-04-10 12:00:00,
2013-04-10 07:06:00,30.7,24.0,30.02,NE,50,9.0,22.0,76,0.00,,SKC,0.00,VWS V14.01,2013-04-10 12:06:00,
2013-04-10 07:12:00,30.7,24.0,30.03,NNE,33,10.0,14.0,76,0.00,,SKC,0.00,VWS V14.01,2013-04-10 12:12:00,
2013-04-10 07:17:00,30.8,24.1,30.03,NE,47,8.0,14.0,76,0.00,,SKC,0.00,VWS V14.01,2013-04-10 12:17:00,
2013-04-10 07:22:00,30.8,24.1,30.02,NE,42,8.0,14.0,76,0.00,,SKC,0.00,VWS V14.01,2013-04-10 12:22:00,
2013-04-10 07:27:00,30.8,24.1,30.03,NE,42,12.0,14.0,76,0.00,,SKC,0.00,VWS V14.01,2013-04-10 12:27:00,
2013-04-10 07:30:00,31.0,24.3,30.04,NE,46,7.0,14.0,76,0.00,,SKC,0.00,VWS V14.01,2013-04-10 12:30:00,
2013-04-10 07:32:00,30.9,23.9,30.03,NE,46,11.0,14.0,75,0.00,,SKC,0.00,VWS V14.01,2013-04-10 12:32:00,
2013-04-10 07:37:00,31.0,24.3,30.04,NE,46,10.0,10.0,76,0.00,,SKC,0.00,VWS V14.01,2013-04-10 12:37:00,
2013-04-10 07:42:00,31.1,23.8,30.03,NE,39,9.0,14.0,74,0.00,,SKC,0.00,VWS V14.01,2013-04-10 12:42:00,
2013-04-10 07:47:00,31.2,24.2,30.03,NE,42,6.0,14.0,75,0.00,,SKC,0.00,VWS V14.01,2013-04-10 12:47:00,
2013-04-10 07:53:00,31.3,24.3,30.03,NE,43,6.0,14.0,75,0.00,,SKC,0.00,VWS V14.01,2013-04-10 12:53:00,
2013-04-10 07:58:00,31.4,24.1,30.04,NE,41,8.0,14.0,74,0.00,,SKC,0.00,VWS V14.01,2013-04-10 12:58:00,
2013-04-10 08:00:00,31.4,23.8,30.04,NE,38,8.0,14.0,73,0.00,,SKC,0.00,VWS V14.01,2013-04-10 13:00:00,
2013-04-10 08:03:00,31.4,23.8,30.04,NE,41,7.0,14.0,73,0.00,,SKC,0.00,VWS V14.01,2013-04-10 13:03:00,
2013-04-10 08:08:00,31.5,24.2,30.04,NE,40,10.0,10.0,74,0.00,,SKC,0.00,VWS V14.01,2013-04-10 13:08:00,
2013-04-10 08:13:00,31.6,24.3,30.04,NE,40,10.0,10.0,74,0.00,,SKC,0.00,VWS V14.01,2013-04-10 13:13:00,
2013-04-10 08:18:00,31.6,24.0,30.04,NE,51,13.0,14.0,73,0.00,,SKC,0.00,VWS V14.01,2013-04-10 13:18:00,
2013-04-10 08:23:00,31.7,24.0,30.03,NE,50,10.0,14.0,73,0.00,,SKC,0.00,VWS V14.01,2013-04-10 13:23:00,
2013-04-10 08:28:00,31.8,24.1,30.03,NE,46,6.0,14.0,73,0.00,,SKC,0.00,VWS V14.01,2013-04-10 13:28:00,
2013-04-10 08:30:00,32.1,24.4,30.03,NE,45,11.0,14.0,73,0.00,,SKC,0.00,VWS V14.01,2013-04-10 13:30:00,
2013-04-10 08:33:00,32.0,24.3,30.03,NE,40,7.0,14.0,73,0.00,,SKC,0.00,VWS V14.01,2013-04-10 13:33:00,
2013-04-10 08:38:00,32.2,24.5,30.04,NE,37,10.0,12.0,73,0.00,,SKC,0.00,VWS V14.01,2013-04-10 13:38:00,
2013-04-10 08:43:00,32.3,24.6,30.05,NE,51,14.0,15.0,73,0.00,,SKC,0.00,VWS V14.01,2013-04-10 13:43:00,
2013-04-10 08:48:00,32.3,24.3,30.05,NE,45,13.0,15.0,72,0.00,,SKC,0.00,VWS V14.01,2013-04-10 13:48:00,
2013-04-10 08:54:00,32.4,24.7,30.06,NE,42,9.0,15.0,73,0.00,,SKC,0.00,VWS V14.01,2013-04-10 13:54:00,
2013-04-10 08:59:00,32.8,24.8,30.06,NE,45,6.0,15.0,72,0.00,,SKC,0.00,VWS V14.01,2013-04-10 13:59:00,
2013-04-10 09:00:00,33.5,25.1,30.06,NE,47,13.0,15.0,71,0.00,,SKC,0.00,VWS V14.01,2013-04-10 14:00:00,
2013-04-10 09:04:00,33.3,24.9,30.05,NE,53,14.0,15.0,71,0.00,,SKC,0.00,VWS V14.01,2013-04-10 14:04:00,
2013-04-10 09:09:00,33.6,24.9,30.06,NE,37,11.0,14.0,70,0.00,,SKC,0.00,VWS V14.01,2013-04-10 14:09:00,
2013-04-10 09:14:00,33.7,25.0,30.05,NE,52,10.0,15.0,70,0.00,,SKC,0.00,VWS V14.01,2013-04-10 14:14:00,
2013-04-10 09:19:00,33.8,25.1,30.06,NE,49,10.0,15.0,70,0.00,,SKC,0.00,VWS V14.01,2013-04-10 14:19:00,
2013-04-10 09:24:00,33.7,24.6,30.06,ENE,57,16.0,21.0,69,0.00,,SKC,0.00,VWS V14.01,2013-04-10 14:24:00,
2013-04-10 09:29:00,33.5,24.4,30.06,ENE,59,11.0,21.0,69,0.00,,SKC,0.00,VWS V14.01,2013-04-10 14:29:00,
2013-04-10 09:30:00,33.5,24.8,30.05,NE,49,15.0,21.0,70,0.00,,SKC,0.00,VWS V14.01,2013-04-10 14:30:00,
2013-04-10 09:34:00,33.5,24.8,30.06,NE,56,14.0,21.0,70,0.00,,SKC,0.00,VWS V14.01,2013-04-10 14:34:00,
2013-04-10 09:40:00,33.5,24.8,30.05,ENE,61,14.0,19.0,70,0.00,,SKC,0.00,VWS V14.01,2013-04-10 14:40:00,
2013-04-10 09:45:00,33.7,25.0,30.04,NE,44,14.0,19.0,70,0.00,,SKC,0.00,VWS V14.01,2013-04-10 14:45:00,
2013-04-10 09:50:00,33.8,24.7,30.04,NE,49,13.0,21.0,69,0.00,,SKC,0.00,VWS V14.01,2013-04-10 14:50:00,
2013-04-10 09:55:00,34.0,24.6,30.04,NE,39,12.0,21.0,68,0.00,,SKC,0.00,VWS V14.01,2013-04-10 14:55:00,
2013-04-10 10:00:00,34.2,24.8,30.03,NE,42,15.0,22.0,68,0.00,,SKC,0.00,VWS V14.01,2013-04-10 15:00:00,
2013-04-10 10:05:00,34.4,24.6,30.03,NE,51,21.0,22.0,67,0.00,,SKC,0.00,VWS V14.01,2013-04-10 15:05:00,
2013-04-10 10:10:00,34.4,24.6,30.04,ENE,57,14.0,21.0,67,0.00,,SKC,0.00,VWS V14.01,2013-04-10 15:10:00,
2013-04-10 10:15:00,35.0,25.5,30.05,ENE,57,19.0,21.0,68,0.00,,SKC,0.00,VWS V14.01,2013-04-10 15:15:00,
2013-04-10 10:20:00,35.2,25.0,30.06,NE,48,13.0,22.0,66,0.00,,SKC,0.00,VWS V14.01,2013-04-10 15:20:00,
2013-04-10 10:25:00,35.2,25.0,30.05,NE,53,20.0,22.0,66,0.00,,SKC,0.00,VWS V14.01,2013-04-10 15:25:00,
2013-04-10 10:30:00,35.1,24.9,30.06,NE,53,13.0,22.0,66,0.00,,SKC,0.00,VWS V14.01,2013-04-10 15:30:00,
2013-04-10 10:35:00,35.0,24.8,30.06,NE,42,12.0,22.0,66,0.00,,SKC,0.00,VWS V14.01,2013-04-10 15:35:00,
2013-04-10 10:40:00,34.8,24.6,30.06,NE,55,13.0,20.0,66,0.00,,SKC,0.00,VWS V14.01,2013-04-10 15:40:00,
2013-04-10 10:46:00,34.8,24.6,30.05,NE,35,16.0,20.0,66,0.00,,SKC,0.00,VWS V14.01,2013-04-10 15:46:00,
2013-04-10 10:51:00,34.7,24.5,30.05,ENE,59,16.0,20.0,66,0.00,,SKC,0.00,VWS V14.01,2013-04-10 15:51:00,
2013-04-10 10:56:00,34.6,24.4,30.05,NE,49,13.0,20.0,66,0.00,,SKC,0.00,VWS V14.01,2013-04-10 15:56:00,
2013-04-10 11:00:00,34.7,24.5,30.04,NE,41,11.0,20.0,66,0.00,,SKC,0.00,VWS V14.01,2013-04-10 16:00:00,
2013-04-10 11:01:00,34.6,24.8,30.05,NE,50,15.0,20.0,67,0.00,,SKC,0.00,VWS V14.01,2013-04-10 16:01:00,
2013-04-10 11:06:00,34.7,24.5,30.04,NE,41,11.0,20.0,66,0.00,,SKC,0.00,VWS V14.01,2013-04-10 16:06:00,
2013-04-10 11:11:00,34.7,24.5,30.04,NE,49,12.0,18.0,66,0.00,,SKC,0.00,VWS V14.01,2013-04-10 16:11:00,
2013-04-10 11:16:00,34.7,24.9,30.04,NE,50,13.0,18.0,67,0.00,,SKC,0.00,VWS V14.01,2013-04-10 16:16:00,
2013-04-10 11:21:00,34.6,24.8,30.05,ENE,60,12.0,18.0,67,0.00,,SKC,0.00,VWS V14.01,2013-04-10 16:21:00,
2013-04-10 11:26:00,34.7,24.5,30.04,NE,51,14.0,18.0,66,0.00,,SKC,0.00,VWS V14.01,2013-04-10 16:26:00,
2013-04-10 11:30:00,34.7,24.5,30.04,NE,46,18.0,20.0,66,0.00,,SKC,0.00,VWS V14.01,2013-04-10 16:30:00,
2013-04-10 11:32:00,34.7,24.5,30.04,NE,45,16.0,19.0,66,0.00,,SKC,0.00,VWS V14.01,2013-04-10 16:32:00,
2013-04-10 11:37:00,34.7,24.5,30.05,NE,50,15.0,18.0,66,0.00,,SKC,0.00,VWS V14.01,2013-04-10 16:37:00,
2013-04-10 11:42:00,34.6,24.4,30.04,NE,49,16.0,18.0,66,0.00,,SKC,0.00,VWS V14.01,2013-04-10 16:42:00,
2013-04-10 11:48:00,34.7,24.5,30.04,NE,52,12.0,18.0,66,0.00,,SKC,0.00,VWS V14.01,2013-04-10 16:48:00,
2013-04-10 11:53:00,34.8,24.6,30.04,NE,50,15.0,19.0,66,0.00,,SKC,0.00,VWS V14.01,2013-04-10 16:53:00,
2013-04-10 11:58:00,34.8,24.6,30.04,NE,51,14.0,21.0,66,0.00,,SKC,0.00,VWS V14.01,2013-04-10 16:58:00,
2013-04-10 12:00:00,34.8,24.6,30.04,NE,49,12.0,21.0,66,0.00,,SKC,0.00,VWS V14.01,2013-04-10 17:00:00,
2013-04-10 12:03:00,34.8,24.6,30.04,NE,48,16.0,21.0,66,0.00,,SKC,0.00,VWS V14.01,2013-04-10 17:03:00,
2013-04-10 12:08:00,34.9,24.7,30.03,ENE,57,15.0,16.0,66,0.00,,SKC,0.00,VWS V14.01,2013-04-10 17:08:00,
2013-04-10 12:13:00,35.1,24.5,30.03,NE,46,15.0,21.0,65,0.00,,SKC,0.00,VWS V14.01,2013-04-10 17:13:00,
2013-04-10 12:19:00,35.2,24.6,30.03,NE,42,10.0,21.0,65,0.00,,SKC,0.00,VWS V14.01,2013-04-10 17:19:00,
2013-04-10 12:24:00,35.4,24.8,30.03,NE,55,18.0,21.0,65,0.00,,SKC,0.00,VWS V14.01,2013-04-10 17:24:00,
2013-04-10 12:29:00,35.6,24.6,30.03,NE,55,15.0,23.0,64,0.00,,SKC,0.00,VWS V14.01,2013-04-10 17:29:00,
2013-04-10 12:30:00,35.7,24.7,30.02,NE,39,13.0,23.0,64,0.00,,SKC,0.00,VWS V14.01,2013-04-10 17:30:00,
2013-04-10 12:34:00,35.7,24.7,30.02,NE,38,12.0,23.0,64,0.00,,SKC,0.00,VWS V14.01,2013-04-10 17:34:00,
2013-04-10 12:39:00,35.8,24.5,30.02,NE,52,16.0,22.0,63,0.00,,SKC,0.00,VWS V14.01,2013-04-10 17:39:00,
2013-04-10 12:45:00,36.0,24.6,30.01,NE,46,14.0,22.0,63,0.00,,SKC,0.00,VWS V14.01,2013-04-10 17:45:00,
2013-04-10 12:50:00,36.2,24.8,30.00,NE,50,14.0,22.0,63,0.00,,SKC,0.00,VWS V14.01,2013-04-10 17:50:00,
2013-04-10 12:55:00,36.5,25.1,30.00,NE,41,14.0,22.0,63,0.00,,SKC,0.00,VWS V14.01,2013-04-10 17:55:00,
2013-04-10 13:00:00,36.7,24.9,30.00,NE,45,14.0,22.0,62,0.00,,SKC,0.00,VWS V14.01,2013-04-10 18:00:00,
2013-04-10 13:05:00,36.8,25.0,30.00,NE,39,12.0,22.0,62,0.00,,SKC,0.00,VWS V14.01,2013-04-10 18:05:00,
2013-04-10 13:10:00,37.0,24.8,30.00,NE,41,9.0,21.0,61,0.00,,SKC,0.00,VWS V14.01,2013-04-10 18:10:00,
2013-04-10 13:15:00,37.1,25.3,29.99,NE,50,10.0,21.0,62,0.00,,SKC,0.00,VWS V14.01,2013-04-10 18:15:00,
2013-04-10 13:21:00,37.4,25.2,30.00,NE,47,14.0,21.0,61,0.00,,SKC,0.00,VWS V14.01,2013-04-10 18:21:00,
2013-04-10 13:26:00,37.5,25.3,30.00,NE,40,14.0,21.0,61,0.00,,SKC,0.00,VWS V14.01,2013-04-10 18:26:00,
2013-04-10 13:30:00,37.7,25.5,29.99,NE,47,13.0,21.0,61,0.00,,SKC,0.00,VWS V14.01,2013-04-10 18:30:00,
2013-04-10 13:32:00,37.6,25.4,30.00,NE,36,14.0,21.0,61,0.00,,SKC,0.00,VWS V14.01,2013-04-10 18:32:00,
2013-04-10 13:37:00,37.8,25.2,29.99,NE,50,12.0,20.0,60,0.00,,SKC,0.00,VWS V14.01,2013-04-10 18:37:00,
2013-04-10 13:42:00,37.8,25.2,29.99,NE,53,13.0,20.0,60,0.00,,SKC,0.00,VWS V14.01,2013-04-10 18:42:00,
2013-04-10 13:47:00,38.2,24.7,30.00,NE,45,15.0,20.0,58,0.00,,SKC,0.00,VWS V14.01,2013-04-10 18:47:00,
2013-04-10 13:52:00,38.2,24.7,30.00,NE,53,14.0,21.0,58,0.00,,SKC,0.00,VWS V14.01,2013-04-10 18:52:00,
2013-04-10 13:57:00,38.3,24.8,30.01,NE,41,7.0,21.0,58,0.00,,SKC,0.00,VWS V14.01,2013-04-10 18:57:00,
2013-04-10 14:00:00,38.2,23.9,30.03,ENE,62,15.0,21.0,56,0.00,,SKC,0.00,VWS V14.01,2013-04-10 19:00:00,
2013-04-10 14:03:00,38.3,24.8,30.02,NE,49,19.0,21.0,58,0.00,,SKC,0.00,VWS V14.01,2013-04-10 19:03:00,
2013-04-10 14:08:00,38.2,23.9,30.03,NE,49,10.0,15.0,56,0.00,,SKC,0.00,VWS V14.01,2013-04-10 19:08:00,
2013-04-10 14:13:00,38.2,23.9,30.04,NE,42,9.0,18.0,56,0.00,,SKC,0.00,VWS V14.01,2013-04-10 19:13:00,
2013-04-10 14:18:00,38.1,24.2,30.04,ENE,62,9.0,18.0,57,0.00,,SKC,0.00,VWS V14.01,2013-04-10 19:18:00,
2013-04-10 14:23:00,38.1,24.2,30.04,ENE,71,14.0,18.0,57,0.00,,SKC,0.00,VWS V14.01,2013-04-10 19:23:00,
2013-04-10 14:28:00,38.2,23.9,30.04,NE,49,8.0,18.0,56,0.00,,SKC,0.00,VWS V14.01,2013-04-10 19:28:00,
2013-04-10 14:30:00,38.2,23.0,30.04,NE,51,13.0,20.0,54,0.00,,SKC,0.00,VWS V14.01,2013-04-10 19:30:00,
2013-04-10 14:33:00,38.2,23.0,30.04,NE,47,12.0,18.0,54,0.00,,SKC,0.00,VWS V14.01,2013-04-10 19:33:00,
2013-04-10 14:39:00,38.1,22.9,30.04,NE,51,14.0,14.0,54,0.00,,SKC,0.00,VWS V14.01,2013-04-10 19:39:00,
2013-04-10 14:44:00,38.1,22.9,30.04,NE,54,13.0,15.0,54,0.00,,SKC,0.00,VWS V14.01,2013-04-10 19:44:00,
2013-04-10 14:49:00,38.2,23.0,30.04,NE,50,13.0,15.0,54,0.00,,SKC,0.00,VWS V14.01,2013-04-10 19:49:00,
2013-04-10 14:54:00,38.1,23.8,30.03,ENE,65,14.0,15.0,56,0.00,,SKC,0.00,VWS V14.01,2013-04-10 19:54:00,
2013-04-10 14:59:00,38.0,23.7,30.02,NE,43,11.0,15.0,56,0.00,,SKC,0.00,VWS V14.01,2013-04-10 19:59:00,
2013-04-10 15:00:00,38.1,23.8,30.03,NE,51,10.0,15.0,56,0.00,,SKC,0.00,VWS V14.01,2013-04-10 20:00:00,
2013-04-10 15:04:00,38.0,23.3,30.03,ENE,61,11.0,15.0,55,0.00,,SKC,0.00,VWS V14.01,2013-04-10 20:04:00,
2013-04-10 15:09:00,38.0,23.7,30.04,NE,51,9.0,12.0,56,0.00,,SKC,0.00,VWS V14.01,2013-04-10 20:09:00,
2013-04-10 15:14:00,38.0,22.9,30.04,NE,53,11.0,14.0,54,0.00,,SKC,0.00,VWS V14.01,2013-04-10 20:14:00,
2013-04-10 15:19:00,38.1,22.9,30.03,NE,52,15.0,16.0,54,0.00,,SKC,0.00,VWS V14.01,2013-04-10 20:19:00,
2013-04-10 15:24:00,38.2,22.6,30.03,NE,55,9.0,18.0,53,0.00,,SKC,0.00,VWS V14.01,2013-04-10 20:24:00,
2013-04-10 15:29:00,38.2,23.5,30.03,NE,55,8.0,18.0,55,0.00,,SKC,0.00,VWS V14.01,2013-04-10 20:29:00,
2013-04-10 15:30:00,38.1,22.9,30.03,NE,46,11.0,18.0,54,0.00,,SKC,0.00,VWS V14.01,2013-04-10 20:30:00,
2013-04-10 15:35:00,38.1,22.9,30.03,NE,52,10.0,18.0,54,0.00,,SKC,0.00,VWS V14.01,2013-04-10 20:35:00,
2013-04-10 15:40:00,38.2,22.1,30.04,ENE,62,10.0,14.0,52,0.00,,SKC,0.00,VWS V14.01,2013-04-10 20:40:00,
2013-04-10 15:45:00,38.2,22.6,30.03,NE,51,9.0,14.0,53,0.00,,SKC,0.00,VWS V14.01,2013-04-10 20:45:00,
2013-04-10 15:50:00,38.1,22.5,30.03,NE,49,10.0,14.0,53,0.00,,SKC,0.00,VWS V14.01,2013-04-10 20:50:00,
2013-04-10 15:55:00,38.1,22.5,30.02,NE,52,15.0,16.0,53,0.00,,SKC,0.00,VWS V14.01,2013-04-10 20:55:00,
2013-04-10 16:00:00,38.3,21.8,30.02,ENE,58,11.0,18.0,51,0.00,,SKC,0.00,VWS V14.01,2013-04-10 21:00:00,
2013-04-10 16:01:00,38.3,21.8,30.02,NE,56,11.0,18.0,51,0.00,,SKC,0.00,VWS V14.01,2013-04-10 21:01:00,
2013-04-10 16:06:00,38.3,21.8,30.02,ENE,63,13.0,18.0,51,0.00,,SKC,0.00,VWS V14.01,2013-04-10 21:06:00,
2013-04-10 16:11:00,38.4,21.9,30.01,ENE,65,13.0,18.0,51,0.00,,SKC,0.00,VWS V14.01,2013-04-10 21:11:00,
2013-04-10 16:17:00,38.4,21.9,30.00,NE,56,13.0,18.0,51,0.00,,SKC,0.00,VWS V14.01,2013-04-10 21:17:00,
2013-04-10 16:22:00,38.5,21.0,30.00,ENE,65,18.0,21.0,49,0.00,,SKC,0.00,VWS V14.01,2013-04-10 21:22:00,
2013-04-10 16:27:00,38.5,21.5,30.00,NE,49,16.0,21.0,50,0.00,,SKC,0.00,VWS V14.01,2013-04-10 21:27:00,
2013-04-10 16:30:00,38.4,20.9,29.99,ENE,67,16.0,21.0,49,0.00,,SKC,0.00,VWS V14.01,2013-04-10 21:30:00,
2013-04-10 16:32:00,38.4,21.4,29.99,NE,42,18.0,21.0,50,0.00,,SKC,0.00,VWS V14.01,2013-04-10 21:32:00,
2013-04-10 16:37:00,38.4,21.4,29.99,ENE,57,14.0,19.0,50,0.00,,SKC,0.00,VWS V14.01,2013-04-10 21:37:00,
2013-04-10 16:42:00,38.4,20.4,29.99,ENE,65,15.0,24.0,48,0.00,,SKC,0.00,VWS V14.01,2013-04-10 21:42:00,
2013-04-10 16:48:00,38.2,20.7,29.98,ENE,61,21.0,25.0,49,0.00,,SKC,0.00,VWS V14.01,2013-04-10 21:48:00,
2013-04-10 16:53:00,38.1,19.7,29.96,ENE,63,16.0,25.0,47,0.00,,SKC,0.00,VWS V14.01,2013-04-10 21:53:00,
2013-04-10 16:58:00,38.1,20.2,29.97,ENE,62,16.0,25.0,48,0.00,,SKC,0.00,VWS V14.01,2013-04-10 21:58:00,
2013-04-10 17:00:00,38.0,19.6,29.97,ENE,66,19.0,26.0,47,0.00,,SKC,0.00,VWS V14.01,2013-04-10 22:00:00,
2013-04-10 17:03:00,38.0,20.1,29.97,ENE,62,16.0,26.0,48,0.00,,SKC,0.00,VWS V14.01,2013-04-10 22:03:00,
2013-04-10 17:08:00,38.0,20.5,29.97,NE,55,10.0,19.0,49,0.00,,SKC,0.00,VWS V14.01,2013-04-10 22:08:00,
2013-04-10 17:13:00,38.0,20.5,29.98,ENE,69,15.0,20.0,49,0.00,,SKC,0.00,VWS V14.01,2013-04-10 22:13:00,
2013-04-10 17:18:00,37.9,20.0,29.98,ENE,59,12.0,22.0,48,0.00,,SKC,0.00,VWS V14.01,2013-04-10 22:18:00,
2013-04-10 17:23:00,37.8,19.4,29.98,ENE,61,14.0,23.0,47,0.00,,SKC,0.00,VWS V14.01,2013-04-10 22:23:00,
2013-04-10 17:28:00,37.8,19.4,29.98,NE,50,15.0,23.0,47,0.00,,SKC,0.00,VWS V14.01,2013-04-10 22:28:00,
2013-04-10 17:30:00,37.7,19.3,29.98,ENE,63,14.0,23.0,47,0.00,,SKC,0.00,VWS V14.01,2013-04-10 22:30:00,
2013-04-10 17:34:00,37.7,18.8,29.98,ENE,64,18.0,23.0,46,0.00,,SKC,0.00,VWS V14.01,2013-04-10 22:34:00,
2013-04-10 17:39:00,37.7,19.3,29.97,NE,56,13.0,20.0,47,0.00,,SKC,0.00,VWS V14.01,2013-04-10 22:39:00,
2013-04-10 17:44:00,37.6,19.2,29.97,ENE,61,12.0,20.0,47,0.00,,SKC,0.00,VWS V14.01,2013-04-10 22:44:00,
2013-04-10 17:49:00,37.6,19.7,29.97,NE,51,16.0,20.0,48,0.00,,SKC,0.00,VWS V14.01,2013-04-10 22:49:00,
2013-04-10 17:54:00,37.5,19.6,29.97,NE,54,11.0,20.0,48,0.00,,SKC,0.00,VWS V14.01,2013-04-10 22:54:00,
2013-04-10 17:59:00,37.4,19.5,29.97,NE,41,18.0,20.0,48,0.00,,SKC,0.00,VWS V14.01,2013-04-10 22:59:00,
2013-04-10 18:00:00,37.3,19.4,29.97,NE,51,15.0,20.0,48,0.00,,SKC,0.00,VWS V14.01,2013-04-10 23:00:00,
2013-04-10 18:04:00,37.3,19.4,29.97,NE,54,13.0,20.0,48,0.00,,SKC,0.00,VWS V14.01,2013-04-10 23:04:00,
2013-04-10 18:10:00,37.3,20.4,29.97,ENE,63,9.0,16.0,50,0.00,,SKC,0.00,VWS V14.01,2013-04-10 23:10:00,
2013-04-10 18:15:00,37.1,20.7,29.96,NE,53,9.0,16.0,51,0.00,,SKC,0.00,VWS V14.01,2013-04-10 23:15:00,
2013-04-10 18:20:00,37.1,20.7,29.95,NE,55,10.0,16.0,51,0.00,,SKC,0.00,VWS V14.01,2013-04-10 23:20:00,
2013-04-10 18:25:00,37.1,20.2,29.96,NE,52,13.0,18.0,50,0.00,,SKC,0.00,VWS V14.01,2013-04-10 23:25:00,
2013-04-10 18:30:00,37.1,19.7,29.96,NE,40,13.0,18.0,49,0.00,,SKC,0.00,VWS V14.01,2013-04-10 23:30:00,
2013-04-10 18:35:00,37.1,19.7,29.96,NE,49,13.0,18.0,49,0.00,,SKC,0.00,VWS V14.01,2013-04-10 23:35:00,
2013-04-10 18:40:00,37.1,20.2,29.96,NE,53,12.0,14.0,50,0.00,,SKC,0.00,VWS V14.01,2013-04-10 23:40:00,
2013-04-10 18:45:00,37.0,20.1,29.95,NE,51,15.0,15.0,50,0.00,,SKC,0.00,VWS V14.01,2013-04-10 23:45:00,
2013-04-10 18:50:00,36.9,20.5,29.96,NE,48,11.0,18.0,51,0.00,,SKC,0.00,VWS V14.01,2013-04-10 23:50:00,
2013-04-10 18:56:00,36.8,20.8,29.96,NE,50,12.0,18.0,52,0.00,,SKC,0.00,VWS V14.01,2013-04-10 23:56:00,
2013-04-10 19:00:00,36.8,20.8,29.96,NE,49,8.0,18.0,52,0.00,,SKC,0.00,VWS V14.01,2013-04-11 00:00:00,
2013-04-10 19:01:00,36.8,19.9,29.95,NE,55,12.0,18.0,50,0.00,,SKC,0.00,VWS V14.01,2013-04-11 00:01:00,
2013-04-10 19:07:00,36.7,21.2,29.96,NE,53,14.0,14.0,53,0.00,,SKC,0.00,VWS V14.01,2013-04-11 00:07:00,
2013-04-10 19:12:00,36.7,19.8,29.95,NE,48,18.0,18.0,50,0.00,,SKC,0.00,VWS V14.01,2013-04-11 00:12:00,
2013-04-10 19:17:00,36.6,20.2,29.95,NE,50,11.0,18.0,51,0.00,,SKC,0.00,VWS V14.01,2013-04-11 00:17:00,
2013-04-10 19:22:00,36.6,20.6,29.96,NE,51,11.0,18.0,52,0.00,,SKC,0.00,VWS V14.01,2013-04-11 00:22:00,
2013-04-10 19:27:00,36.5,20.6,29.95,ENE,60,13.0,18.0,52,0.00,,SKC,0.00,VWS V14.01,2013-04-11 00:27:00,
2013-04-10 19:30:00,36.4,21.4,29.94,NE,55,9.0,18.0,54,0.00,,SKC,0.00,VWS V14.01,2013-04-11 00:30:00,
2013-04-10 19:32:00,36.5,21.0,29.94,NE,53,11.0,18.0,53,0.00,,SKC,0.00,VWS V14.01,2013-04-11 00:32:00,
2013-04-10 19:37:00,36.4,21.4,29.94,NE,53,11.0,11.0,54,0.00,,SKC,0.00,VWS V14.01,2013-04-11 00:37:00,
2013-04-10 19:42:00,36.2,21.2,29.94,NE,49,11.0,15.0,54,0.00,,SKC,0.00,VWS V14.01,2013-04-11 00:42:00,
2013-04-10 19:47:00,36.1,21.5,29.93,NE,50,13.0,15.0,55,0.00,,SKC,0.00,VWS V14.01,2013-04-11 00:47:00,
2013-04-10 19:53:00,36.1,21.1,29.93,NE,51,11.0,18.0,54,0.00,,SKC,0.00,VWS V14.01,2013-04-11 00:53:00,
2013-04-10 19:58:00,36.1,21.1,29.92,NE,46,12.0,18.0,54,0.00,,SKC,0.00,VWS V14.01,2013-04-11 00:58:00,
2013-04-10 20:00:00,35.9,21.3,29.92,NE,51,9.0,18.0,55,0.00,,SKC,0.00,VWS V14.01,2013-04-11 01:00:00,
2013-04-10 20:03:00,36.0,21.4,29.92,NE,51,12.0,18.0,55,0.00,,SKC,0.00,VWS V14.01,2013-04-11 01:03:00,
2013-04-10 20:08:00,35.9,21.8,29.91,NE,49,8.0,11.0,56,0.00,,SKC,0.00,VWS V14.01,2013-04-11 01:08:00,
2013-04-10 20:13:00,35.7,21.6,29.90,NE,51,10.0,11.0,56,0.00,,SKC,0.00,VWS V14.01,2013-04-11 01:13:00,
2013-04-10 20:18:00,35.6,21.5,29.90,NE,54,14.0,16.0,56,0.00,,SKC,0.00,VWS V14.01,2013-04-11 01:18:00,
2013-04-10 20:23:00,35.5,21.4,29.89,NE,49,13.0,18.0,56,0.00,,SKC,0.00,VWS V14.01,2013-04-11 01:23:00,
2013-04-10 20:28:00,35.4,21.3,29.89,NE,53,14.0,20.0,56,0.00,,SKC,0.00,VWS V14.01,2013-04-11 01:28:00,
2013-04-10 20:30:00,35.3,21.6,29.90,NE,53,13.0,21.0,57,0.00,,SKC,0.00,VWS V14.01,2013-04-11 01:30:00,
2013-04-10 20:33:00,35.3,21.6,29.90,ENE,60,13.0,21.0,57,0.00,,SKC,0.00,VWS V14.01,2013-04-11 01:33:00,
2013-04-10 20:38:00,35.2,21.1,29.90,ENE,57,14.0,19.0,56,0.00,,SKC,0.00,VWS V14.01,2013-04-11 01:38:00,
2013-04-10 20:43:00,35.3,22.0,29.90,NE,49,15.0,19.0,58,0.00,,SKC,0.00,VWS V14.01,2013-04-11 01:43:00,
2013-04-10 20:48:00,35.2,21.9,29.90,NE,52,14.0,22.0,58,0.00,,SKC,0.00,VWS V14.01,2013-04-11 01:48:00,
2013-04-10 20:53:00,35.2,21.1,29.90,ENE,57,14.0,22.0,56,0.00,,SKC,0.00,VWS V14.01,2013-04-11 01:53:00,
2013-04-10 20:58:00,35.1,21.4,29.90,ENE,65,20.0,22.0,57,0.00,,SKC,0.00,VWS V14.01,2013-04-11 01:58:00,
2013-04-10 21:00:00,35.0,22.1,29.90,NE,55,15.0,22.0,59,0.00,,SKC,0.00,VWS V14.01,2013-04-11 02:00:00,
2013-04-10 21:04:00,35.1,21.8,29.90,ENE,66,15.0,22.0,58,0.00,,SKC,0.00,VWS V14.01,2013-04-11 02:04:00,
2013-04-10 21:09:00,35.0,21.7,29.89,ENE,58,18.0,23.0,58,0.00,,SKC,0.00,VWS V14.01,2013-04-11 02:09:00,
2013-04-10 21:14:00,34.9,21.6,29.88,ENE,61,11.0,23.0,58,0.00,,SKC,0.00,VWS V14.01,2013-04-11 02:14:00,
2013-04-10 21:19:00,34.8,22.0,29.89,NE,56,12.0,23.0,59,0.00,,SKC,0.00,VWS V14.01,2013-04-11 02:19:00,
2013-04-10 21:24:00,34.7,21.9,29.89,ENE,64,19.0,23.0,59,0.00,,SKC,0.00,VWS V14.01,2013-04-11 02:24:00,
2013-04-10 21:29:00,34.6,21.8,29.89,NE,49,21.0,23.0,59,0.00,,SKC,0.00,VWS V14.01,2013-04-11 02:29:00,
2013-04-10 21:30:00,34.6,22.2,29.89,NE,53,13.0,23.0,60,0.00,,SKC,0.00,VWS V14.01,2013-04-11 02:30:00,
2013-04-10 21:34:00,34.6,22.2,29.89,ENE,65,19.0,23.0,60,0.00,,SKC,0.00,VWS V14.01,2013-04-11 02:34:00,
2013-04-10 21:40:00,34.5,22.1,29.89,NE,49,13.0,18.0,60,0.00,,SKC,0.00,VWS V14.01,2013-04-11 02:40:00,
2013-04-10 21:45:00,34.4,22.0,29.90,ENE,65,19.0,20.0,60,0.00,,SKC,0.00,VWS V14.01,2013-04-11 02:45:00,
2013-04-10 21:50:00,34.4,22.4,29.90,NE,56,12.0,20.0,61,0.00,,SKC,0.00,VWS V14.01,2013-04-11 02:50:00,
2013-04-10 21:55:00,34.4,22.4,29.91,NE,51,13.0,21.0,61,0.00,,SKC,0.00,VWS V14.01,2013-04-11 02:55:00,
2013-04-10 22:00:00,34.4,22.4,29.91,NE,53,13.0,21.0,61,0.00,,SKC,0.00,VWS V14.01,2013-04-11 03:00:00,
2013-04-10 22:05:00,34.4,22.4,29.92,ENE,61,18.0,25.0,61,0.00,,SKC,0.00,VWS V14.01,2013-04-11 03:05:00,
2013-04-10 22:10:00,34.5,22.5,29.91,NE,52,12.0,18.0,61,0.00,,SKC,0.00,VWS V14.01,2013-04-11 03:10:00,
2013-04-10 22:15:00,34.4,22.7,29.90,ENE,59,14.0,20.0,62,0.00,,SKC,0.00,VWS V14.01,2013-04-11 03:15:00,
2013-04-10 22:21:00,34.4,22.7,29.90,NE,53,15.0,20.0,62,0.00,,SKC,0.00,VWS V14.01,2013-04-11 03:21:00,
2013-04-10 22:26:00,34.4,22.7,29.90,ENE,66,13.0,20.0,62,0.00,,SKC,0.00,VWS V14.01,2013-04-11 03:26:00,
2013-04-10 22:30:00,34.6,22.2,29.89,NE,53,13.0,23.0,60,0.00,,SKC,0.00,VWS V14.01,2013-04-11 03:30:00,
2013-04-10 22:31:00,34.5,22.8,29.90,ENE,75,19.0,20.0,62,0.00,,SKC,0.00,VWS V14.01,2013-04-11 03:31:00,
2013-04-10 22:37:00,34.6,22.9,29.90,ENE,63,15.0,19.0,62,0.00,,SKC,0.00,VWS V14.01,2013-04-11 03:37:00,
2013-04-10 22:43:00,34.6,22.9,29.90,NE,50,15.0,20.0,62,0.00,,SKC,0.00,VWS V14.01,2013-04-11 03:43:00,
2013-04-10 22:48:00,34.7,22.6,29.90,ENE,57,19.0,22.0,61,0.00,,SKC,0.00,VWS V14.01,2013-04-11 03:48:00,
2013-04-10 22:53:00,34.7,22.6,29.90,ENE,57,13.0,22.0,61,0.00,,SKC,0.00,VWS V14.01,2013-04-11 03:53:00,
2013-04-10 22:58:00,34.7,22.6,29.90,ENE,57,14.0,23.0,61,0.00,,SKC,0.00,VWS V14.01,2013-04-11 03:58:00,
2013-04-10 23:00:00,34.8,22.7,29.90,ENE,62,18.0,23.0,61,0.00,,SKC,0.00,VWS V14.01,2013-04-11 04:00:00,
2013-04-10 23:03:00,34.8,22.7,29.90,NE,53,11.0,15.0,61,0.00,,SKC,0.00,VWS V14.01,2013-04-11 04:03:00,
2013-04-10 23:05:00,34.8,23.1,29.90,NE,51,13.0,16.0,62,0.00,,SKC,0.00,VWS V14.01,2013-04-11 04:05:00,
2013-04-10 23:06:00,34.7,22.6,29.90,NE,55,11.0,16.0,61,0.00,,SKC,0.00,VWS V14.01,2013-04-11 04:06:00,
2013-04-10 23:11:00,34.7,22.6,29.90,NE,50,12.0,20.0,61,0.00,,SKC,0.00,VWS V14.01,2013-04-11 04:11:00,
2013-04-10 23:16:00,34.8,22.7,29.90,NE,53,13.0,20.0,61,0.00,,SKC,0.00,VWS V14.01,2013-04-11 04:16:00,
2013-04-10 23:21:00,34.8,22.7,29.90,NE,55,14.0,20.0,61,0.00,,SKC,0.00,VWS V14.01,2013-04-11 04:21:00,
2013-04-10 23:27:00,34.8,23.1,29.90,NE,49,13.0,20.0,62,0.00,,SKC,0.00,VWS V14.01,2013-04-11 04:27:00,
2013-04-10 23:30:00,34.5,22.8,29.91,ENE,57,12.0,21.0,62,0.00,,SKC,0.00,VWS V14.01,2013-04-11 04:30:00,
2013-04-10 23:32:00,34.7,23.4,29.90,NE,56,15.0,20.0,63,0.00,,SKC,0.00,VWS V14.01,2013-04-11 04:32:00,
2013-04-10 23:37:00,34.7,23.0,29.90,NE,49,10.0,12.0,62,0.00,,SKC,0.00,VWS V14.01,2013-04-11 04:37:00,
2013-04-10 23:42:00,34.7,22.6,29.90,NE,48,12.0,15.0,61,0.00,,SKC,0.00,VWS V14.01,2013-04-11 04:42:00,
2013-04-10 23:47:00,34.7,23.0,29.91,NE,51,9.0,16.0,62,0.00,,SKC,0.00,VWS V14.01,2013-04-11 04:47:00,
2013-04-10 23:52:00,34.7,23.0,29.91,NE,46,11.0,16.0,62,0.00,,SKC,0.00,VWS V14.01,2013-04-11 04:52:00,
2013-04-10 23:57:00,34.6,22.5,29.91,NE,44,11.0,16.0,61,0.00,,SKC,0.00,VWS V14.01,2013-04-11 04:57:00,